Weather History for Mazatlan Airport, Mexico

Change the Weather History Date:

Thursday, May 16, 2013

  Actual Average Record
Temperature  
Mean Temperature 76 °F -  
Max Temperature 91 °F 85 °F 93 °F (1997)
Min Temperature 60 °F 62 °F 53 °F (2005)
Cooling Degree Days 10    
Growing Degree Days 26 (Base 50)    
Moisture  
Dew Point 55 °F    
Average Humidity 49    
Maximum Humidity 77    
Minimum Humidity 20    
Precipitation  
Precipitation 0.00 in - - ()
Sea Level Pressure  
Sea Level Pressure 29.87 in    
Wind  
Wind Speed 6 mph ()    
Max Wind Speed 18 mph    
Max Gust Speed -    
Visibility 12.3 miles    
Events      
Averages and records for this station are not official NWS values.
T = Trace of Precipitation, MM = Missing Value Source: Averaged Metar Reports

Daily Weather History Graph

Daily Weather History Graph

Search for Another Location

Airport:

Trip Planner

Search our weather history database for the weather conditions in past years. The results will help you decide how hot, cold, wet, or windy it might be!

Date:

Astronomy

May. 16, 2013 Rise Set
Actual Time 6:23 AM MDT 7:39 PM MDT
Civil Twilight 5:58 AM MDT 8:04 PM MDT
Nautical Twilight 5:30 AM MDT 8:33 PM MDT
Astronomical Twilight 5:00 AM MDT 9:03 PM MDT
Moon 11:47 AM MDT (5/16) 12:12 AM MDT (5/16)
Length of Visible Light 14h 05m
Length of Day
13h 16m
Waxing Crescent, 36% of the Moon is Illuminated
May 16
Waxing Crescent
May 17
First Quarter
May 24
Full
May 31
Last Quarter
Jun 8
New

Hourly Weather History & Observations

Time (MDT) Temp. Heat Index Dew Point Humidity Pressure Visibility Wind Dir Wind Speed Gust Speed Precip Events Conditions
12:00 AM 76 °F - 60 °F 47% 29.91 in - NW 2.2 mph - -  
12:44 AM 64.4 °F - 51.8 °F 64% 29.87 in 10.0 mi West 6.9 mph - N/A   Partly Cloudy
1:44 AM 62.6 °F - 50.0 °F 63% 29.86 in 10.0 mi Calm Calm - N/A   Partly Cloudy
2:44 AM 64.4 °F - 50.0 °F 59% 29.85 in 10.0 mi North 5.8 mph - N/A   Partly Cloudy
3:00 AM 72 °F - 58 °F 52% 29.87 in - NW 2.2 mph - -  
3:46 AM 62.6 °F - 48.2 °F 59% 29.85 in 10.0 mi East 8.1 mph - N/A   Clear
4:43 AM 60.8 °F - 46.4 °F 59% 29.86 in 10.0 mi East 9.2 mph - N/A   Clear
5:48 AM 60.8 °F - 44.6 °F 55% 29.86 in 10.0 mi East 6.9 mph - N/A   Scattered Clouds
6:00 AM 70 °F - 59 °F 60% 29.88 in - East 4.5 mph - -  
6:42 AM 60.8 °F - 44.6 °F 55% 29.89 in 12.0 mi WNW 6.9 mph - N/A   Mostly Cloudy
7:42 AM 66.2 °F - 50.0 °F 56% 29.91 in 12.0 mi NW 4.6 mph - N/A   Mostly Cloudy
8:41 AM 75.2 °F - 57.2 °F 53% 29.91 in 12.0 mi East 8.1 mph - N/A   Mostly Cloudy
9:00 AM 80 °F - 69 °F 62% 29.93 in - ESE 6.7 mph - -  
9:44 AM 82.4 °F 82.9 °F 60.8 °F 48% 29.91 in 12.0 mi SSE 8.1 mph - N/A   Mostly Cloudy
10:42 AM 84.2 °F 84.4 °F 60.8 °F 45% 29.91 in 15.0 mi South 9.2 mph - N/A   Mostly Cloudy
11:46 AM 86.0 °F 86.6 °F 62.6 °F 45% 29.88 in 15.0 mi South 9.2 mph - N/A   Mostly Cloudy
12:00 PM 88 °F - 68 °F 41% 29.92 in - SSW 4.5 mph - -  
12:44 PM 87.8 °F 86.5 °F 57.2 °F 35% 29.89 in 15.0 mi SW 11.5 mph - N/A   Scattered Clouds
1:41 PM 87.8 °F 85.7 °F 53.6 °F 31% 29.88 in 15.0 mi SW 11.5 mph - N/A   Scattered Clouds
2:43 PM 91.4 °F - 51.8 °F 26% 29.85 in 15.0 mi SW 15.0 mph - N/A   Partly Cloudy
3:00 PM 89 °F - 58 °F 25% 29.87 in - West 8.9 mph - -  
3:45 PM 91.4 °F - 46.4 °F 21% 29.82 in 15.0 mi WSW 16.1 mph - N/A   Partly Cloudy
4:49 PM 89.6 °F - 42.8 °F 20% 29.81 in 15.0 mi WSW 18.4 mph - N/A   Scattered Clouds
5:46 PM 86.0 °F 84.5 °F 55.4 °F 35% 29.81 in 15.0 mi WSW 12.7 mph - N/A   Scattered Clouds
6:45 PM 80.6 °F 80.5 °F 55.4 °F 42% 29.81 in 15.0 mi WSW 15.0 mph - N/A   Scattered Clouds
7:42 PM 77.0 °F - 57.2 °F 50% 29.84 in 13.0 mi WSW 11.5 mph - N/A   Scattered Clouds
8:46 PM 75.2 °F - 57.2 °F 53% 29.84 in 10.0 mi WNW 8.1 mph - N/A   Partly Cloudy
9:00 PM 78 °F - 72 °F 77% 29.86 in - West 6.7 mph - -  
9:46 PM 71.6 °F - 55.4 °F 57% 29.87 in 10.0 mi NW 8.1 mph - N/A   Partly Cloudy
10:40 PM 69.8 °F - 55.4 °F 60% 29.88 in 10.0 mi Calm Calm - N/A   Partly Cloudy
11:40 PM 66.2 °F - 53.6 °F 64% 29.89 in 10.0 mi North 4.6 mph - N/A   Clear